Date String (YYYY-MM-DD hh:mm:ss) UTC,Instrument flags,absolute air pressure of the measurement (hPa),sample flow rate (lpm),inlet stack bypass flow (lpm),air temperature of the measurement (°C),ambient temperature measured by the external sensor (°C),aerosol sample conditioner tube jacket temperature (°C),OPC LED temperature (°C),internal box temperature (°C),relative humidity of the measurement (%),span deviation,mass concentration of particles derived from Lorenz-Mie calculation of OPC scattering (μg/m³),mass concentration of particles derived from Lorenz-Mie calculation of OPC scattering (μg/m³),mass concentration of particles derived from Lorenz-Mie calculation of OPC scattering (μg/m³)
DateTimeUTC,F1_M11,P_M11,Q1_M11,Q2_M11,T1_M11,T2_M11,T3_M11,T4_M11,T5_M11,U1_M11,ZSPAN_M11,X0_M11,X2_M11,X1_M11
2024-02-04 02:00:00,SystemResetWarning,0817.8,5.00,000.00,019.5,018.9,000.0,027.9,021.2,25.7,0000.0,0003.74,0003.44,0003.38
2024-02-04 02:01:00,SystemResetWarning,0817.8,4.99,000.00,019.5,018.9,000.0,027.9,021.2,25.8,0000.0,0003.81,0003.47,0003.40
2024-02-04 02:02:00,SystemResetWarning,0817.8,4.99,000.00,019.5,018.8,000.0,027.9,021.2,25.8,0000.0,0003.82,0003.49,0003.42
2024-02-04 02:03:00,SystemResetWarning,0817.8,5.00,000.00,019.5,018.8,000.0,027.9,021.2,25.7,0000.0,0003.81,0003.51,0003.45
2024-02-04 02:04:00,SystemResetWarning,0817.8,5.02,000.00,019.5,018.9,000.0,027.9,021.2,25.7,0000.0,0003.80,0003.54,0003.48
2024-02-04 02:05:00,SystemResetWarning,0817.7,5.00,000.00,019.5,018.9,000.0,027.9,021.2,25.7,0000.0,0003.79,0003.55,0003.50
2024-02-04 02:06:00,SystemResetWarning,0817.7,4.99,000.00,019.5,018.8,000.0,027.9,021.1,25.7,0000.0,0003.74,0003.54,0003.49
2024-02-04 02:07:00,SystemResetWarning,0817.7,5.00,000.00,019.5,018.8,000.0,027.9,021.1,25.7,0000.0,0003.72,0003.53,0003.48
2024-02-04 02:08:00,SystemResetWarning,0817.7,5.00,000.00,019.5,018.8,000.0,027.8,021.1,25.7,0000.0,0003.75,0003.53,0003.47
2024-02-04 02:09:00,SystemResetWarning,0817.7,5.00,000.00,019.5,018.8,000.0,027.8,021.1,25.7,0000.0,0003.73,0003.50,0003.45
2024-02-04 02:10:00,SystemResetWarning,0817.8,5.00,000.00,019.5,018.8,000.0,027.8,021.1,25.7,0000.0,0003.75,0003.49,0003.43
2024-02-04 02:11:00,SystemResetWarning,0817.8,5.00,000.00,019.4,018.8,000.0,027.8,021.1,25.7,0000.0,0003.82,0003.51,0003.44
2024-02-04 02:12:00,SystemResetWarning,0817.8,5.00,000.00,019.4,018.8,000.0,027.8,021.1,25.7,0000.0,0003.86,0003.52,0003.45
2024-02-04 02:13:00,SystemResetWarning,0817.8,5.00,000.00,019.4,018.8,000.0,027.8,021.1,25.8,0000.0,0003.91,0003.52,0003.44
2024-02-04 02:14:00,SystemResetWarning,0817.8,5.00,000.00,019.4,018.8,000.0,027.8,021.1,25.8,0000.0,0003.87,0003.48,0003.40
2024-02-04 02:15:00,SystemResetWarning,0817.8,5.00,000.00,019.4,018.8,000.0,027.8,021.1,25.8,0000.0,0003.84,0003.43,0003.35
2024-02-04 02:16:00,SystemResetWarning,0817.8,5.00,000.00,019.4,018.7,000.0,027.8,021.1,26.1,0000.0,0003.83,0003.37,0003.29
2024-02-04 02:17:00,SystemResetWarning,0817.8,5.00,000.00,019.4,018.7,000.0,027.8,021.1,27.2,0000.0,0003.80,0003.32,0003.23
2024-02-04 02:18:00,SystemResetWarning,0817.8,5.00,000.00,019.4,018.7,000.0,027.8,021.1,26.5,0000.0,0003.71,0003.26,0003.17
2024-02-04 02:19:00,SystemResetWarning,0817.9,5.01,000.00,019.4,018.7,000.0,027.8,021.1,26.1,0000.0,0003.55,0003.17,0003.07
2024-02-04 02:20:00,SystemResetWarning,0817.9,4.99,000.00,019.4,018.7,000.0,027.8,021.0,26.0,0000.0,0003.40,0003.07,0002.93
2024-02-04 02:21:00,SystemResetWarning,0818.0,4.99,000.00,019.4,018.7,000.0,027.8,021.0,26.0,0000.0,0003.22,0002.93,0002.81
2024-02-04 02:22:00,SystemResetWarning,0818.0,4.99,000.00,019.4,018.7,000.0,027.8,021.0,26.0,0000.0,0003.16,0002.84,0002.72
2024-02-04 02:23:00,SystemResetWarning,0818.0,5.01,000.00,019.4,018.7,000.0,027.8,021.0,25.9,0000.0,0003.22,0002.82,0002.69
2024-02-04 02:24:00,SystemResetWarning,0818.0,5.00,000.00,019.4,018.7,000.0,027.8,021.0,25.9,0000.0,0003.25,0002.81,0002.69
2024-02-04 02:25:00,SystemResetWarning,0818.0,5.00,000.00,019.4,018.7,000.0,027.8,021.0,25.9,0000.0,0003.32,0002.82,0002.70
2024-02-04 02:26:00,SystemResetWarning,0818.0,4.99,000.00,019.4,018.7,000.0,027.8,021.0,25.9,0000.0,0003.48,0002.88,0002.73
2024-02-04 02:27:00,SystemResetWarning,0818.0,4.99,000.00,019.4,018.7,000.0,027.7,021.0,25.9,0000.0,0003.60,0002.97,0002.81
2024-02-04 02:28:00,SystemResetWarning,0818.0,4.99,000.00,019.4,018.7,000.0,027.7,021.0,26.0,0000.0,0003.70,0003.00,0002.82
2024-02-04 02:29:00,SystemResetWarning,0818.0,4.99,000.00,019.3,018.7,000.0,027.7,021.0,26.0,0000.0,0003.71,0002.98,0002.79
2024-02-04 02:30:00,SystemResetWarning,0818.0,5.00,000.00,019.3,018.7,000.0,027.7,021.0,25.9,0000.0,0003.82,0003.03,0002.82
2024-02-04 02:31:00,SystemResetWarning,0818.0,5.00,000.00,019.3,018.7,000.0,027.7,021.0,26.0,0000.0,0003.97,0003.11,0002.91
2024-02-04 02:32:00,SystemResetWarning,0818.0,5.00,000.00,019.3,018.7,000.0,027.7,021.0,26.0,0000.0,0004.07,0003.13,0002.93
2024-02-04 02:33:00,SystemResetWarning,0818.0,5.00,000.00,019.3,018.7,000.0,027.7,021.0,26.0,0000.0,0004.05,0003.10,0002.86
2024-02-04 02:34:00,SystemResetWarning,0818.1,5.00,000.00,019.3,018.7,000.0,027.7,021.0,26.0,0000.0,0003.82,0002.93,0002.70
2024-02-04 02:35:00,SystemResetWarning,0818.1,5.01,000.00,019.3,018.7,000.0,027.7,021.0,26.0,0000.0,0003.64,0002.76,0002.53
2024-02-04 02:36:00,SystemResetWarning,0818.1,5.01,000.00,019.3,018.6,000.0,027.7,021.0,26.0,0000.0,0003.39,0002.55,0002.32
2024-02-04 02:37:00,SystemResetWarning,0818.2,5.00,000.00,019.3,018.6,000.0,027.7,021.0,26.0,0000.0,0003.11,0002.32,0002.10
2024-02-04 02:38:00,SystemResetWarning,0818.2,4.99,000.00,019.3,018.6,000.0,027.7,021.0,26.1,0000.0,0002.87,0002.10,0001.88
2024-02-04 02:39:00,SystemResetWarning,0818.2,4.99,000.00,019.3,018.6,000.0,027.7,021.0,26.1,0000.0,0002.61,0001.94,0001.75
2024-02-04 02:40:00,SystemResetWarning,0818.3,5.01,000.00,019.3,018.6,000.0,027.7,021.0,26.1,0000.0,0002.60,0001.93,0001.72
2024-02-04 02:41:00,SystemResetWarning,0818.3,5.01,000.00,019.3,018.6,000.0,027.7,020.9,26.1,0000.0,0002.52,0001.89,0001.69
2024-02-04 02:42:00,SystemResetWarning,0818.3,4.99,000.00,019.3,018.6,000.0,027.7,020.9,26.1,0000.0,0002.39,0001.79,0001.59
2024-02-04 02:43:00,SystemResetWarning,0818.3,4.99,000.00,019.3,018.6,000.0,027.7,020.9,26.1,0000.0,0002.23,0001.71,0001.52
2024-02-04 02:44:00,SystemResetWarning,0818.3,5.00,000.00,019.3,018.5,000.0,027.7,020.9,26.1,0000.0,0002.18,0001.70,0001.53
2024-02-04 02:45:00,SystemResetWarning,0818.3,5.00,000.00,019.2,018.5,000.0,027.7,020.9,26.1,0000.0,0002.22,0001.73,0001.55
2024-02-04 02:46:00,SystemResetWarning,0818.3,5.01,000.00,019.2,018.5,000.0,027.7,020.9,26.1,0000.0,0002.24,0001.76,0001.58
2024-02-04 02:47:00,SystemResetWarning,0818.3,5.01,000.00,019.2,018.5,000.0,027.7,020.9,26.1,0000.0,0002.32,0001.81,0001.61
2024-02-04 02:48:00,SystemResetWarning,0818.3,5.00,000.00,019.2,018.5,000.0,027.6,020.9,26.2,0000.0,0002.40,0001.88,0001.67
2024-02-04 02:49:00,SystemResetWarning,0818.3,4.99,000.00,019.2,018.5,000.0,027.6,020.9,26.2,0000.0,0002.35,0001.88,0001.70
2024-02-04 02:50:00,SystemResetWarning,0818.4,4.99,000.00,019.2,018.5,000.0,027.6,020.9,26.2,0000.0,0002.47,0001.92,0001.73
2024-02-04 02:51:00,SystemResetWarning,0818.4,5.00,000.00,019.2,018.5,000.0,027.6,020.9,26.3,0000.0,0002.51,0001.92,0001.72
2024-02-04 02:52:00,SystemResetWarning,0818.4,5.00,000.00,019.2,018.5,000.0,027.6,020.8,26.4,0000.0,0002.45,0001.87,0001.69
2024-02-04 02:53:00,SystemResetWarning,0818.4,5.00,000.00,019.2,018.4,000.0,027.6,020.8,26.4,0000.0,0002.41,0001.83,0001.67
2024-02-04 02:54:00,SystemResetWarning,0818.4,5.00,000.00,019.1,018.4,000.0,027.6,020.8,26.4,0000.0,0002.41,0001.83,0001.66
2024-02-04 02:55:00,SystemResetWarning,0818.4,5.00,000.00,019.1,018.4,000.0,027.6,020.8,26.4,0000.0,0002.41,0001.83,0001.65
2024-02-04 02:56:00,SystemResetWarning,0818.4,5.00,000.00,019.1,018.4,000.0,027.6,020.7,26.5,0000.0,0002.38,0001.82,0001.65
2024-02-04 02:57:00,SystemResetWarning,0818.5,4.99,000.00,019.1,018.3,000.0,027.5,020.7,26.5,0000.0,0002.34,0001.80,0001.64
2024-02-04 02:58:00,SystemResetWarning,0818.5,4.99,000.00,019.1,018.3,000.0,027.5,020.7,26.5,0000.0,0002.28,0001.77,0001.64
2024-02-04 02:59:00,SystemResetWarning,0818.5,4.99,000.00,019.1,018.3,000.0,027.5,020.7,26.6,0000.0,0002.25,0001.77,0001.64
